User: anonymous   Login
Location: Beuerbach
(48.1459°N, 10.9174°E)
Time: 03:46:16
(UTC+00:00)
Language:

Cosmos 1703 Rocket - Orbit

View from above orbital plane
View from above orbital plane
View from above satellite
View from above satellite

Ground track
Ground track

The orbit data is extracted from the following two-line orbital elements,

1 16263U 85108B   24194.54804428  .00000714  00000-0  81947-4 0  9990
2 16263  82.5016 210.6677 0021078 117.7949 359.6458 14.84329270 66111
Epoch (UTC): 12 July 2024 13:09:11
Eccentricity: 0.0021078
inclination: 82.5016°
perigee height: 601 km
apogee height: 630 km
right ascension of ascending node: 210.6677°
argument of perigee: 117.7949°
revolutions per day: 14.84329270
mean anomaly at epoch: 359.6458°
orbit number at epoch: 6611

The dashed part of the orbit path shows where the satellite is in the earth's shadow,  

DLR